Flag for Tunisia Past Weather in Houmt Souk (Djerba), Tunisia — Yesterday and Last 2 Weeks

Now
79 °F

Clear.


Feels Like: 81 °F
Forecast: 76 / 86 °F
Wind: 7 mph from East

Location: Djerba Mellita

Current Time: Jul 26, 2016 at 1:44:06 AM

Latest Report: Jul 26, 2016 at 1:00 AM


Visibility: 5 mi

Pressure: 30.01 "Hg

Humidity: 70%

Dew Point: 68 °F

Location of Houmt Souk (Djerba)Location

Past Weather in Houmt Souk (Djerba) — Graph

°F

Houmt Souk (Djerba) Temperature Yesterday

Maximum temperature yesterday: 84 °F (at 10:30 AM)
Minimum temperature yesterday: 77 °F (at 1:00 AM)
Average temperature yesterday: 81 °F

High & Low Weather Summary for the Past Weeks

 TemperatureHumidityPressure
High106 °F (Jul 11, 4:30 PM)94% (Jul 22, 5:00 AM)30.15 "Hg (Jul 22, 5:00 AM)
Low66 °F (Jul 17, 5:30 AM)14% (Jul 11, 4:30 PM)29.71 "Hg (Jul 12, 3:00 PM)
Average82 °F58%29.96 "Hg
* Reported Jul 11 12:30 AM — Jul 26 12:30 AM, Houmt Souk (Djerba), Weather by CustomWeather, © 2016

Note: Actual official high and low records may vary slightly from our data, if they occured in-between our weather recording intervals... More about our weather records

Advertising

Houmt Souk (Djerba) Weather History for the Previous 24 Hours

Scroll right to see more
 ConditionsComfort  
Time TempWeatherWind HumidityBarometerVisibility
12:30 AM
Tue, Jul 26
79 °FPassing clouds.8 mph74%30.01 "Hg5 mi
12:00 AM79 °FPassing clouds.9 mph74%30.01 "Hg5 mi
11:30 PM
Mon, Jul 25
79 °FPassing clouds.9 mph74%30.01 "Hg5 mi
11:00 PM79 °FPassing clouds.10 mph74%30.01 "HgN/A
10:30 PM79 °FPassing clouds.12 mph74%30.01 "HgN/A
10:00 PM79 °FPassing clouds.12 mph74%29.98 "HgN/A
9:30 PM81 °FPassing clouds.12 mph70%29.98 "HgN/A
9:00 PM81 °FPassing clouds.12 mph66%29.98 "HgN/A
8:30 PM81 °FPassing clouds.13 mph70%29.95 "HgN/A
8:00 PM79 °FPassing clouds.15 mph74%29.95 "HgN/A
7:30 PM81 °FPassing clouds.15 mph70%29.92 "HgN/A
7:00 PM81 °FPassing clouds.15 mph70%29.92 "HgN/A
6:30 PM82 °FScattered clouds.17 mph62%29.92 "HgN/A
6:00 PM82 °FScattered clouds.16 mph62%29.92 "HgN/A
5:30 PM84 °FScattered clouds.16 mph58%29.95 "HgN/A
5:00 PM84 °FScattered clouds.16 mph58%29.95 "HgN/A
4:30 PM84 °FScattered clouds.17 mph58%29.95 "HgN/A
4:00 PM84 °FScattered clouds.17 mph58%29.95 "HgN/A
3:30 PM84 °FScattered clouds.17 mph58%29.95 "HgN/A
3:00 PM82 °FScattered clouds.16 mph66%29.95 "HgN/A
2:30 PM82 °FScattered clouds.17 mph66%29.95 "HgN/A
2:00 PM82 °FScattered clouds.16 mph66%29.95 "HgN/A
1:30 PM84 °FScattered clouds.16 mph62%29.95 "HgN/A
1:00 PM82 °FScattered clouds.15 mph66%29.98 "HgN/A
12:30 PM84 °FScattered clouds.15 mph62%29.98 "HgN/A
12:00 PM82 °FScattered clouds.13 mph66%29.98 "HgN/A
11:30 AM82 °FScattered clouds.14 mph66%29.98 "HgN/A
11:00 AM84 °FScattered clouds.13 mph58%29.98 "HgN/A
10:30 AM84 °FPassing clouds.14 mph58%29.98 "HgN/A
10:00 AM82 °FPassing clouds.13 mph62%29.98 "HgN/A
9:30 AM82 °FPassing clouds.12 mph62%29.98 "HgN/A
9:00 AM82 °FPassing clouds.13 mph58%29.98 "HgN/A
8:30 AM82 °FPassing clouds.13 mph62%29.98 "HgN/A
8:00 AM81 °FPassing clouds.13 mph66%29.98 "HgN/A
7:30 AM81 °FPassing clouds.12 mph70%29.98 "HgN/A
7:00 AM79 °FPassing clouds.12 mph70%29.98 "HgN/A
6:30 AM79 °FPassing clouds.10 mph74%29.98 "HgN/A
6:00 AM77 °FPassing clouds.10 mph79%29.95 "HgN/A
5:30 AM77 °FPassing clouds.10 mph83%29.95 "HgN/A
5:00 AM77 °FPassing clouds.9 mph79%29.95 "HgN/A
4:30 AM77 °FPassing clouds.8 mph79%29.95 "HgN/A
4:00 AM77 °FClear.6 mph83%29.95 "Hg10 mi
3:30 AM77 °FWarm.6 mph83%29.95 "HgN/A
3:00 AM77 °FClear.3 mph79%29.95 "Hg10 mi
2:30 AM77 °FClear.3 mph79%29.95 "Hg10 mi
2:00 AM77 °FClear.5 mph79%29.95 "Hg10 mi
1:30 AM77 °FClear.5 mph79%29.95 "Hg10 mi
1:00 AM77 °FClear.7 mph79%29.95 "Hg10 mi
Weather by CustomWeather, © 2016

See weather overviewHow to use our weather pages